Temperature
22 22 21 22 22 23 22 21 21 22 23 22 22 22 22 22 22 22 22 22 22 22 21 21 20 20 20 20 19 19 19 18 18 18 17 17 17 17 16 16 16 16 15 15
21 21 22 23 23 23 22 21 21 22 23 23 22 22 23 23 23 23 23 23 22 22 21 20 20 20 20 20 19 19 19 18 18 18 17 17 17 16 16 16 16 15 15 15
21 21 23 23 22 22 22 22 22 22 23 23 23 22 23 23 23 23 23 23 22 22 21 21 20 20 20 20 19 19 19 18 18 18 17 17 17 16 16 16 16 15 15 15
21 22 22 22 22 22 22 23 23 23 22 22 23 21 23 23 23 23 23 23 23 22 22 21 20 20 20 19 19 19 19 18 18 18 17 17 17 17 16 16 16 15 15 15
22 23 22 22 23 23 22 23 23 23 23 23 23 22 23 23 22 23 23 23 23 22 22 21 21 20 20 19 19 19 19 18 18 18 17 17 17 17 16 16 16 16 15 15
22 23 23 23 24 24 23 23 23 23 23 22 23 23 23 23 24 24 24 23 23 22 22 21 20 20 19 19 19 19 18 18 18 17 17 17 17 17 16 16 16 16 15 15
22 23 23 24 23 23 23 22 21 21 21 22 25 24 24 25 26 25 25 24 23 22 22 21 20 20 19 19 19 18 18 18 18 17 17 17 17 16 16 16 16 16 15 15
22 22 24 24 24 23 23 23 21 21 22 23 25 25 25 26 26 26 25 24 23 23 22 21 20 20 19 19 18 18 18 18 17 17 17 17 17 16 16 16 16 15 15 15
23 23 25 25 25 25 24 23 24 23 23 23 24 25 25 26 25 25 25 24 24 23 22 21 20 19 19 19 18 18 18 18 17 17 17 17 17 16 16 16 15 15 15 15
24 23 24 25 25 25 25 24 24 23 22 22 24 25 24 24 24 25 25 24 23 23 22 21 20 19 19 18 18 18 18 18 17 17 17 17 16 16 16 15 15 15 15 14
24 23 23 24 24 24 24 24 24 24 24 23 22 23 26 25 25 25 25 24 23 23 22 21 20 19 19 18 18 18 18 17 17 17 17 17 16 16 16 15 15 15 15 14
25 24 23 24 25 26 25 25 25 23 24 24 23 23 27 26 26 26 25 24 24 23 22 21 20 19 18 18 18 18 18 17 17 17 17 16 16 16 15 15 15 15 14 14
25 24 23 23 24 25 25 25 25 25 24 24 23 24 27 27 26 26 25 24 23 22 21 20 19 19 18 18 18 17 17 17 17 17 16 16 16 15 15 15 15 14 14 14
24 24 23 22 23 25 25 25 25 25 24 24 24 24 25 26 26 25 25 24 23 22 21 20 19 19 18 18 17 17 17 17 17 17 16 16 16 15 15 15 14 14 14 13
25 24 25 25 25 26 26 26 26 25 25 24 25 25 26 26 26 25 25 24 23 22 21 20 19 18 18 18 17 17 17 17 17 16 16 16 15 15 15 14 14 14 13 13
25 25 25 25 26 26 26 26 26 26 26 25 25 25 26 26 26 25 24 23 23 22 21 20 19 19 18 18 17 17 17 17 16 16 16 16 15 15 15 14 14 13 13 13
25 25 24 24 26 26 25 26 26 26 26 26 25 25 26 25 25 25 24 23 22 22 21 20 20 19 18 18 17 17 17 16 16 16 16 15 15 15 15 14 14 13 13 13
25 25 24 24 25 23 25 27 27 26 26 26 26 26 26 25 25 24 24 23 22 22 21 21 20 19 19 18 18 17 17 16 16 16 15 15 15 15 14 14 14 13 13 12
26 25 24 24 23 24 26 26 26 26 25 26 26 25 25 25 24 24 23 23 22 22 21 21 20 20 19 19 18 17 17 16 16 16 15 15 15 15 14 14 14 13 13 12
25 25 24 23 23 23 24 26 26 25 24 25 25 25 24 24 23 22 22 22 22 21 21 20 20 20 19 19 18 17 17 16 16 16 15 15 15 15 14 14 13 13 12 12
23 23 23 22 23 23 24 25 25 23 23 24 24 24 23 23 22 22 22 21 21 21 20 20 20 19 19 18 18 17 17 16 16 16 15 15 14 14 14 13 13 13 12 12
24 23 23 23 22 22 24 24 24 23 24 24 23 23 22 22 21 21 21 21 20 20 19 19 19 19 18 18 17 17 17 16 16 15 15 14 14 14 13 13 13 12 12 12
25 24 24 24 23 23 23 23 23 23 23 22 22 22 21 21 20 20 20 19 19 19 19 18 18 18 18 17 17 17 16 16 15 15 15 14 14 13 13 13 12 12 12 11
25 25 24 24 24 23 22 22 22 21 21 21 21 21 20 20 19 19 19 18 18 18 18 18 17 17 17 17 16 16 16 16 15 15 14 14 13 13 12 12 12 12 12 11
23 24 23 23 23 22 21 21 21 20 20 20 20 20 19 19 19 18 18 18 17 17 17 17 17 16 16 16 16 15 15 15 15 14 14 13 13 12 12 12 12 12 12 11
22 22 22 21 21 22 21 20 20 19 19 19 19 19 18 18 18 17 17 17 17 16 16 16 16 15 15 15 15 15 15 14 14 14 13 13 13 12 12 12 12 11 11 11
Wind_Speed
3 2 4 7 6 4 6 6 6 5 5 6 7 7 8 8 8 8 9 9 10 10 10 8 7 5 5 6 7 7 6 5 4 2 2 3 3 2 3 4 7 7 9 9
3 2 2 4 5 3 7 8 7 5 5 6 8 7 8 9 10 9 10 10 9 10 11 9 7 6 5 6 6 6 6 5 5 3 2 2 2 2 3 3 6 8 8 9
3 2 2 5 6 5 5 8 8 6 6 6 6 6 9 10 9 9 8 9 10 11 12 11 9 8 6 5 5 6 6 6 5 4 2 2 2 1 3 3 3 4 6 6
2 2 3 3 4 5 4 5 6 6 6 4 7 4 8 12 10 10 9 8 9 9 10 10 9 9 7 6 5 6 6 6 5 5 3 2 3 3 3 2 2 2 6 6
3 4 4 3 4 3 4 6 6 7 6 5 7 4 6 12 12 13 12 11 9 10 10 10 9 9 8 7 5 5 6 6 6 5 4 3 3 3 3 3 3 3 3 5
3 2 2 2 2 2 3 5 6 7 5 5 8 6 4 10 14 15 15 14 12 11 10 10 10 9 8 8 6 5 7 6 5 4 4 4 4 3 3 3 3 2 2 2
5 6 5 4 4 4 5 4 3 4 4 4 6 5 3 8 11 12 14 14 13 12 11 11 11 10 9 9 7 6 7 6 5 3 4 5 4 2 2 2 2 2 2 2
5 6 7 6 5 5 8 6 2 2 2 2 4 4 4 8 8 8 10 12 13 13 12 12 12 10 9 9 8 7 7 6 5 3 3 4 4 2 2 2 2 2 2 2
2 4 8 6 5 4 5 5 5 3 5 3 3 4 6 8 8 8 9 10 12 13 13 12 12 11 10 10 8 8 8 7 6 4 3 3 4 3 3 2 3 2 2 2
2 2 7 6 5 5 6 5 4 3 2 2 2 4 6 11 10 10 10 10 10 11 12 11 11 11 10 9 8 8 8 7 6 5 3 4 3 3 3 2 3 3 3 2
2 2 5 7 6 8 7 6 5 4 4 1 2 2 3 9 9 10 11 10 10 11 11 11 10 10 10 9 9 8 7 7 6 5 4 5 3 3 3 2 2 1 1 1
3 2 4 7 8 8 6 6 6 4 4 3 1 1 3 7 9 8 8 10 11 11 11 11 11 11 10 10 9 9 8 7 6 5 5 4 4 3 2 2 1 1 2 2
2 2 3 3 5 7 7 7 8 6 6 5 3 1 4 7 8 8 8 8 9 10 11 11 11 10 10 10 9 9 8 8 7 6 5 5 4 4 3 2 2 2 2 2
3 5 6 5 4 4 7 8 8 7 5 5 5 4 4 4 5 7 8 8 10 10 11 11 10 10 10 10 9 8 8 8 8 7 5 4 4 4 3 3 2 1 2 3
5 7 8 7 7 7 7 8 8 9 9 8 7 6 5 2 3 5 8 8 9 11 11 12 11 10 10 10 9 9 8 9 8 7 6 4 4 4 4 3 1 1 1 2
7 9 9 8 9 9 9 10 10 11 11 10 9 8 4 1 2 4 7 8 8 10 11 12 12 11 11 11 11 10 9 9 8 8 7 5 4 4 3 3 2 1 1 1
7 9 9 8 8 8 10 9 10 10 10 9 8 5 2 0 2 3 5 7 7 7 9 11 11 11 11 11 11 10 10 9 9 8 7 6 6 5 4 3 3 2 1 0
8 9 6 7 8 9 3 1 1 2 4 4 3 2 1 1 2 3 4 5 5 6 6 8 10 10 10 10 10 9 9 9 9 8 8 7 7 6 5 4 3 3 2 1
7 7 6 7 8 7 4 1 0 2 3 4 3 1 2 1 2 2 3 4 4 4 5 6 7 9 10 10 10 10 10 9 9 8 8 8 8 7 6 5 4 3 2 2
6 7 7 7 8 7 2 3 3 1 1 3 2 2 2 1 2 2 3 3 3 3 3 4 5 7 8 8 9 9 9 10 9 9 8 8 8 7 7 6 5 4 3 3
8 7 8 9 9 5 3 2 1 1 2 5 5 4 4 2 3 3 3 3 4 4 4 4 3 4 5 7 8 8 8 9 8 8 8 7 7 7 7 6 5 4 4 4
6 5 7 7 8 4 3 1 2 3 4 5 6 6 5 4 4 4 4 4 4 4 4 4 3 3 3 4 6 7 7 6 7 7 7 7 7 7 7 6 5 5 5 5
5 4 3 2 0 4 5 4 5 5 5 5 5 5 4 4 3 4 4 3 3 4 4 4 4 3 3 3 4 5 5 6 6 7 7 6 7 6 6 6 6 5 5 5
4 3 3 3 1 3 4 3 3 4 4 4 4 4 3 3 3 3 3 2 2 3 3 3 4 4 3 3 3 4 4 6 6 7 7 6 6 6 6 5 6 5 5 5
3 3 3 4 2 1 2 2 2 3 3 3 3 3 2 2 2 3 2 2 2 2 2 3 3 3 3 3 3 3 4 5 6 6 6 6 6 6 5 5 5 6 5 6
5 5 5 3 3 2 1 3 3 2 2 2 2 2 2 2 2 3 2 2 2 2 2 2 2 2 2 2 3 3 4 4 5 5 5 4 4 4 5 5 4 7 8 9
Wind_Direction
188 169 168 172 177 160 148 149 148 143 148 153 160 164 172 176 184 180 177 174 168 156 146 139 141 144 147 129 121 127 127 114 100 73 67 77 73 63 64 65 50 38 38 26
127 151 181 144 147 155 145 151 149 144 162 168 169 183 186 187 193 190 184 176 170 157 149 145 153 148 132 115 114 111 105 100 91 78 83 93 87 86 90 61 56 42 40 29
121 140 151 149 153 163 150 165 164 161 172 186 177 191 188 187 195 193 193 180 176 170 160 160 161 148 136 126 123 123 120 114 110 104 76 68 75 51 77 75 66 48 52 39
106 174 155 162 172 169 161 176 171 179 185 198 199 199 199 188 188 190 194 192 180 167 158 156 156 150 146 139 135 129 118 115 113 108 80 69 81 71 69 72 73 59 56 47
167 158 158 175 170 154 162 179 188 202 221 234 215 216 204 179 188 193 193 195 183 171 164 155 155 151 146 137 133 124 113 99 92 95 91 61 58 67 69 64 57 60 62 52
156 158 188 187 159 176 178 186 202 222 236 242 221 214 207 184 192 188 188 190 185 172 163 155 150 145 138 132 131 121 115 106 104 107 111 105 90 75 68 58 43 38 63 54
173 185 188 187 175 193 202 208 211 206 216 231 210 211 199 175 179 179 179 182 180 169 164 159 153 151 145 144 145 141 132 131 138 153 149 135 122 111 95 79 54 35 58 51
181 180 184 191 209 201 207 212 237 268 244 257 212 196 142 132 141 154 166 171 170 168 168 166 161 156 153 153 156 155 149 150 156 173 155 132 130 112 89 69 62 58 65 57
222 176 170 186 215 242 224 224 238 272 283 268 225 145 127 132 143 154 162 164 169 170 167 165 159 157 158 159 163 162 156 157 163 168 145 114 106 95 81 61 61 65 62 47
265 163 171 178 213 241 259 264 251 253 288 283 236 191 162 160 166 167 168 167 167 163 162 158 156 157 159 159 163 162 166 167 166 164 153 118 100 102 85 57 58 45 45 33
256 230 179 183 207 220 218 233 253 263 258 271 336 343 95 150 158 168 172 170 168 165 161 160 157 157 156 157 162 167 171 164 160 159 140 125 125 117 114 93 75 61 59 37
221 265 227 212 209 220 232 244 252 264 287 285 239 223 142 141 151 158 164 167 167 165 160 158 156 157 160 165 170 174 174 161 155 153 138 142 144 143 138 121 95 43 46 30
308 247 248 211 196 203 225 238 252 266 275 280 285 172 143 146 150 155 156 158 159 159 156 156 158 163 167 170 173 173 168 157 154 151 153 164 160 153 143 114 79 29 28 29
298 257 256 253 265 232 222 228 236 252 259 269 274 259 238 183 158 154 155 159 157 159 159 159 162 166 168 171 173 171 167 158 158 159 169 175 160 151 138 114 94 45 27 13
250 265 257 254 260 263 252 246 240 248 259 265 271 271 268 232 153 151 152 152 158 162 165 167 168 171 173 174 175 175 171 164 163 164 171 171 162 145 133 126 134 93 40 7
238 272 277 261 252 256 256 247 244 246 253 261 268 276 289 312 116 145 155 159 165 171 172 173 175 176 179 180 179 178 173 168 165 168 171 164 155 141 139 146 147 107 54 10
229 251 274 280 268 259 257 249 245 240 243 250 255 262 274 204 143 149 158 167 172 174 176 177 181 181 184 184 181 178 174 168 168 170 166 161 160 161 166 166 148 155 193 153
255 265 271 275 276 265 270 347 195 250 287 294 296 297 231 166 134 133 143 161 173 173 174 180 182 180 183 180 174 170 166 169 173 173 169 167 166 167 166 165 175 191 202 176
249 266 277 279 278 276 276 305 223 256 286 312 303 306 107 128 147 136 101 122 146 164 176 179 179 177 180 176 170 169 172 174 175 174 172 171 169 170 172 178 189 194 190 200
233 249 257 266 274 279 325 42 57 342 286 355 357 38 74 94 182 119 100 106 122 129 144 159 169 171 171 167 164 171 177 177 179 177 175 174 172 173 179 185 191 193 193 208
208 222 236 253 263 274 353 66 119 248 40 36 36 51 69 63 65 71 87 99 107 111 117 121 134 149 155 155 161 177 184 186 177 168 170 173 172 176 182 185 190 193 201 213
244 238 235 242 251 258 68 85 42 41 44 46 43 49 53 54 65 72 84 101 110 111 118 126 129 126 133 150 165 183 190 173 156 158 167 174 177 186 188 182 192 201 205 216
241 251 267 269 52 84 78 62 44 28 29 37 39 43 54 49 60 72 83 92 110 121 128 131 134 139 151 165 175 188 173 151 152 161 172 180 185 187 181 184 197 208 209 218
279 283 261 272 189 112 100 71 56 43 27 32 35 43 56 56 65 73 88 95 101 120 130 134 141 156 170 170 173 176 158 158 165 175 182 189 194 194 194 196 201 208 213 220
309 312 276 267 283 42 72 61 46 43 37 36 42 53 57 74 77 80 84 83 90 97 110 131 153 170 177 171 176 170 162 175 186 191 194 198 199 197 197 201 210 215 219 218
280 286 270 262 303 314 39 58 60 48 28 22 41 54 59 76 89 83 86 79 87 101 98 108 132 158 180 183 178 171 169 185 198 204 205 202 197 196 198 204 224 231 227 228
Height
1506 1509 1513 1511 1510 1512 1516 1521 1525 1523 1522 1524 1528 1531 1531 1533 1535 1536 1538 1540 1542 1545 1548 1550 1553 1555 1556 1558 1559 1559 1560 1561 1561 1562 1562 1562 1562 1562 1561 1560 1560 1559 1558 1557
1510 1514 1509 1508 1509 1511 1515 1523 1525 1523 1521 1524 1528 1529 1528 1530 1532 1534 1536 1538 1541 1544 1547 1549 1552 1554 1556 1558 1559 1560 1561 1561 1561 1562 1562 1562 1562 1562 1561 1561 1560 1559 1558 1557
1513 1513 1509 1509 1512 1513 1516 1520 1523 1524 1522 1522 1526 1531 1527 1527 1529 1531 1533 1536 1538 1542 1545 1548 1551 1553 1555 1557 1558 1559 1560 1561 1561 1561 1562 1562 1562 1562 1562 1561 1560 1560 1559 1558
1513 1510 1510 1512 1514 1514 1521 1516 1518 1521 1525 1528 1526 1539 1527 1524 1526 1529 1531 1534 1536 1539 1543 1546 1549 1552 1554 1556 1558 1559 1560 1560 1561 1561 1562 1562 1562 1562 1562 1562 1561 1560 1559 1558
1513 1510 1511 1514 1513 1513 1517 1515 1517 1520 1523 1527 1524 1531 1525 1519 1525 1525 1528 1531 1534 1537 1541 1544 1547 1550 1552 1554 1556 1558 1559 1560 1560 1561 1561 1562 1562 1562 1562 1562 1561 1561 1560 1559
1510 1509 1511 1511 1511 1512 1513 1516 1518 1519 1523 1534 1522 1526 1526 1517 1516 1518 1522 1526 1530 1534 1538 1542 1545 1548 1551 1553 1555 1557 1558 1559 1559 1560 1561 1561 1562 1562 1562 1562 1561 1561 1560 1559
1512 1510 1509 1510 1513 1514 1515 1524 1534 1537 1538 1531 1512 1517 1517 1505 1506 1511 1516 1522 1527 1531 1536 1540 1543 1546 1548 1551 1553 1555 1556 1558 1559 1560 1560 1561 1561 1561 1561 1561 1561 1561 1560 1559
1515 1518 1508 1507 1510 1513 1514 1519 1536 1544 1539 1526 1511 1515 1507 1500 1504 1509 1513 1518 1523 1528 1533 1536 1540 1543 1546 1548 1551 1553 1555 1556 1557 1559 1560 1560 1561 1561 1561 1561 1561 1560 1560 1559
1511 1512 1503 1505 1506 1507 1513 1516 1514 1523 1524 1528 1517 1507 1504 1501 1505 1509 1512 1517 1521 1525 1530 1534 1537 1540 1543 1546 1549 1551 1553 1555 1556 1557 1558 1559 1560 1560 1560 1560 1560 1560 1559 1559
1504 1511 1506 1504 1506 1507 1508 1509 1514 1522 1532 1535 1521 1512 1511 1507 1507 1508 1511 1515 1519 1523 1528 1531 1535 1538 1541 1544 1547 1549 1551 1553 1555 1556 1557 1558 1558 1559 1559 1559 1559 1559 1558 1558
1501 1509 1510 1507 1509 1509 1509 1510 1509 1513 1513 1529 1536 1524 1497 1500 1501 1505 1509 1513 1517 1521 1525 1529 1532 1536 1539 1542 1544 1547 1549 1551 1553 1554 1555 1556 1557 1557 1558 1558 1558 1558 1558 1557
1500 1506 1512 1506 1499 1499 1501 1504 1508 1519 1518 1512 1522 1522 1494 1496 1499 1503 1507 1511 1515 1519 1523 1526 1530 1534 1537 1539 1542 1545 1547 1549 1551 1552 1554 1554 1555 1556 1556 1556 1557 1557 1557 1556
1499 1506 1515 1515 1509 1503 1502 1501 1502 1504 1509 1513 1521 1518 1494 1495 1498 1501 1505 1509 1513 1517 1520 1524 1528 1531 1534 1537 1540 1542 1545 1547 1548 1550 1551 1553 1554 1554 1555 1555 1555 1555 1555 1555
1501 1503 1512 1520 1511 1501 1502 1500 1499 1504 1513 1514 1512 1509 1499 1495 1497 1500 1503 1507 1511 1515 1518 1522 1525 1528 1531 1534 1537 1540 1542 1544 1546 1548 1549 1551 1551 1552 1553 1553 1553 1553 1553 1553
1499 1502 1499 1497 1494 1493 1495 1496 1497 1501 1502 1507 1505 1503 1497 1494 1496 1498 1502 1505 1509 1512 1516 1519 1522 1525 1528 1531 1534 1537 1539 1541 1543 1545 1546 1548 1549 1550 1550 1551 1551 1551 1551 1551
1497 1499 1496 1497 1492 1491 1493 1492 1493 1495 1495 1497 1498 1498 1492 1493 1495 1497 1500 1503 1507 1510 1513 1516 1519 1522 1525 1528 1531 1534 1536 1538 1540 1542 1544 1545 1546 1547 1548 1548 1548 1549 1549 1549
1493 1496 1500 1501 1491 1491 1498 1488 1487 1488 1488 1491 1496 1494 1490 1492 1494 1496 1499 1502 1504 1507 1510 1513 1516 1519 1522 1525 1528 1530 1533 1535 1537 1539 1541 1542 1543 1544 1545 1546 1546 1546 1546 1546
1490 1493 1495 1498 1498 1510 1491 1478 1480 1485 1486 1485 1486 1487 1489 1491 1493 1495 1498 1500 1502 1505 1508 1510 1513 1516 1520 1523 1525 1528 1530 1532 1534 1536 1537 1539 1540 1541 1542 1543 1543 1543 1544 1543
1487 1492 1498 1500 1504 1497 1485 1480 1480 1485 1488 1484 1485 1486 1488 1490 1492 1494 1497 1498 1500 1503 1505 1508 1510 1513 1517 1519 1522 1525 1527 1529 1531 1532 1534 1535 1536 1538 1539 1539 1540 1540 1540 1541
1487 1489 1497 1499 1506 1506 1492 1481 1480 1484 1492 1485 1485 1486 1488 1489 1494 1496 1496 1497 1499 1501 1503 1506 1508 1511 1514 1516 1519 1521 1523 1525 1526 1528 1530 1532 1533 1534 1535 1536 1537 1537 1537 1537
1491 1493 1498 1500 1502 1494 1485 1482 1482 1495 1496 1487 1487 1487 1489 1491 1494 1496 1495 1497 1498 1500 1502 1504 1506 1509 1511 1513 1516 1518 1520 1522 1523 1525 1527 1528 1529 1530 1531 1532 1533 1534 1534 1534
1485 1490 1492 1493 1499 1499 1485 1484 1487 1490 1488 1488 1489 1490 1491 1492 1493 1494 1495 1496 1497 1499 1501 1503 1505 1507 1509 1511 1513 1515 1517 1519 1521 1522 1523 1524 1526 1527 1528 1528 1529 1530 1530 1530
1478 1481 1482 1485 1490 1486 1485 1486 1488 1488 1489 1490 1491 1491 1492 1493 1494 1494 1495 1496 1497 1498 1500 1501 1503 1505 1507 1508 1510 1512 1514 1516 1517 1518 1520 1521 1522 1523 1524 1524 1525 1526 1526 1526
1474 1475 1477 1481 1481 1483 1485 1487 1488 1489 1490 1490 1491 1492 1492 1493 1494 1494 1495 1496 1497 1498 1499 1500 1502 1503 1505 1506 1508 1510 1511 1512 1514 1515 1516 1517 1518 1519 1520 1520 1521 1521 1521 1521
1477 1476 1478 1481 1482 1484 1485 1486 1487 1488 1489 1490 1491 1491 1492 1493 1493 1494 1494 1495 1496 1497 1498 1499 1500 1501 1502 1504 1505 1506 1508 1509 1510 1511 1512 1513 1514 1515 1515 1516 1516 1516 1517 1517
1478 1479 1480 1482 1483 1483 1484 1485 1486 1487 1488 1489 1490 1490 1491 1492 1492 1493 1493 1494 1495 1496 1497 1498 1499 1499 1500 1501 1502 1503 1504 1505 1506 1507 1508 1509 1510 1510 1511 1511 1511 1511 1512 1512